This is the latest recevied weather packets stored in our database for station/object N7IGG. If no packets are shown the sender has not sent any weather packets the latest 10 day(s).
| Time | Temp. | Humidity | Pressure | Rain* | Wind** | Luminosity | Snow |
|---|---|---|---|---|---|---|---|
| 1778011871 | 14.44° C | 84% | 1016.8 hPa | 0 mm | - | 139 W/m² | - |
| 1778011569 | 14.44° C | 84% | 1016.8 hPa | 0 mm | - | 141 W/m² | - |
| 1778011266 | 14.44° C | 85% | 1016.8 hPa | 0 mm | - | 135 W/m² | - |
| 1778010962 | 14.44° C | 85% | 1016.8 hPa | 0 mm | - | 127 W/m² | - |
| 1778010660 | 14.44° C | 85% | 1017 hPa | 0 mm | - | 126 W/m² | - |
| 1778010356 | 14.44° C | 86% | 1016.9 hPa | 0 mm | - | 130 W/m² | - |
| 1778010051 | 13.89° C | 86% | 1016.7 hPa | 0 mm | - | 120 W/m² | - |
| 1778009749 | 13.89° C | 86% | 1016.8 hPa | 0 mm | - | 124 W/m² | - |
| 1778009446 | 13.89° C | 86% | 1016.8 hPa | 0 mm | - | 114 W/m² | - |
| 1778009144 | 13.89° C | 86% | 1016.8 hPa | 0 mm | - | 111 W/m² | - |
| 1778008842 | 13.89° C | 87% | 1016.9 hPa | 0 mm | - | 111 W/m² | - |
| 1778008540 | 13.89° C | 87% | 1016.9 hPa | 0 mm | - | 108 W/m² | - |
| 1778008238 | 13.89° C | 87% | 1016.9 hPa | 0 mm | - | 102 W/m² | - |
| 1778007932 | 13.33° C | 87% | 1016.6 hPa | 0 mm | - | 109 W/m² | - |
| 1778007629 | 13.33° C | 87% | 1016.8 hPa | 0 mm | - | 121 W/m² | - |
| 1778007325 | 13.89° C | 87% | 1016.6 hPa | 0 mm | - | 103 W/m² | - |
| 1778007022 | 13.33° C | 87% | 1016.6 hPa | 0 mm | - | 104 W/m² | - |
| 1778006719 | 13.33° C | 87% | 1016.5 hPa | 0 mm | - | 113 W/m² | - |
| 1778006415 | 13.33° C | 88% | 1016.9 hPa | 0 mm | - | 111 W/m² | - |
| 1778006112 | 13.33° C | 88% | 1016.6 hPa | 0 mm | - | 108 W/m² | - |
| 1778005809 | 13.33° C | 89% | 1016.8 hPa | 0 mm | - | 109 W/m² | - |
| 1778005506 | 13.33° C | 89% | 1016.7 hPa | 0 mm | - | 108 W/m² | - |
| 1778005203 | 13.33° C | 89% | 1016.7 hPa | 0 mm | - | 103 W/m² | - |
| 1778004899 | 12.78° C | 89% | 1016.5 hPa | 0 mm | - | 98 W/m² | - |
| 1778004596 | 12.78° C | 89% | 1016.6 hPa | 0 mm | - | 106 W/m² | - |
* Rain latest hour (hover to see other rain measurements)
** Current wind speed in m/s (hover to see current wind gust speed)